Simultaneous Nadir Overpasses (SNOs) Predictions

Prediction of SNOs between LANDSAT-8 and NOAA-19 Satellite Orbit:

Table of predicted SNOs for the next 14.0 days since TLE Epoch: 4/6/2018
Index Date (LANDSAT-8) Time (LANDSAT-8) Lat,Lon (LANDSAT-8) SZA (LANDSAT-8 ) Date (NOAA-19) Time (NOAA-19) Lat,Lon (NOAA-19) SZA (NOAA-19 ) Distance(km) Time Diff (sec)
1 04/08/2018 20:00:11 -77.76, 74.16 109.36 04/08/2018 19:59:05 -77.82, 70.87 109.47 77.73 66
2 04/08/2018 20:49:45 77.39,-119.75 70.19 04/08/2018 20:50:01 77.40,-119.74 70.21 1.92 16
3 04/11/2018 01:33:55 77.67, 170.35 69.72 04/11/2018 01:32:47 77.76, 167.85 69.67 60.00 68
4 04/11/2018 02:23:28 -77.41, -23.08 110.60 04/11/2018 02:23:33 -77.41, -23.08 110.61 0.41 5
5 04/13/2018 07:57:10 77.41, 73.47 68.59 04/13/2018 07:57:17 77.44, 73.44 68.62 3.02 7
6 04/15/2018 13:30:53 -77.44, 170.14 112.18 04/15/2018 13:30:49 -77.43, 170.16 112.18 0.82 4
7 04/17/2018 19:04:35 77.42, -93.34 67.03 04/17/2018 19:04:32 77.45, -93.28 67.06 2.98 3
8 04/17/2018 19:54:12 -76.98, 72.60 113.50 04/17/2018 19:55:16 -76.97, 76.23 113.30 91.07 64
9 04/20/2018 00:38:18 -77.45, 3.33 113.71 04/20/2018 00:38:05 -77.46, 3.34 113.70 1.22 13




NCC Satellite Simultaneous Nadir Overpasses (SNOs) Prediction Service
